CAPE
0 0 0 0 2 11 16 10 1 0 0 0 0 0 0 0 0 0 0 0 0 0 0 0 145 168 154 95 104 61 16 74 47 5 0 0 0 0 0 0 0 0 0 0
0 0 0 0 1 6 3 1 0 0 0 9 0 0 0 0 0 0 0 0 0 0 0 0 4 7 95 110 80 89 46 23 46 1 0 0 0 0 0 0 0 0 0 0
0 0 0 0 0 0 0 0 0 0 0 0 0 0 0 0 0 0 0 0 0 0 0 0 26 0 10 103 89 128 86 50 36 0 0 0 0 0 0 0 0 0 0 0
0 0 3 3 3 0 0 0 0 2 0 0 0 0 0 0 0 0 0 0 0 0 0 0 0 10 17 118 88 113 108 60 23 1 0 0 0 0 0 0 0 0 0 0
0 0 0 0 1 0 0 0 0 0 0 2 0 0 0 0 0 0 0 0 0 0 0 0 0 16 93 108 98 124 139 76 19 2 0 0 0 0 0 0 0 0 0 0
0 0 0 0 0 0 0 1 1 1 0 0 0 0 0 0 0 0 0 0 0 0 0 0 0 3 140 110 115 100 90 86 33 5 0 0 0 0 0 0 0 0 0 0
0 0 0 0 0 0 0 0 0 0 0 0 0 0 0 0 0 0 0 0 0 0 0 0 0 0 11 100 78 74 67 70 62 22 3 0 0 0 0 0 0 0 0 0
0 0 0 0 0 0 1 0 0 0 0 0 0 0 0 0 0 0 0 0 0 0 0 0 0 0 0 48 44 58 84 64 30 41 22 0 0 0 0 0 0 0 0 0
0 0 0 0 0 0 0 0 0 0 0 0 0 0 0 0 0 0 0 0 0 0 0 0 0 0 6 62 48 72 93 81 12 6 1 2 0 0 0 0 0 0 0 0
0 0 0 0 0 0 0 0 0 0 0 0 0 0 0 0 3 0 0 0 0 0 0 0 0 0 62 104 127 163 122 65 55 56 20 4 0 0 0 0 0 0 0 0
0 0 0 0 0 0 0 0 0 0 0 0 0 0 1 2 1 3 27 0 0 0 0 0 0 0 23 128 77 114 98 81 67 78 30 3 0 0 0 0 0 0 0 0
0 0 0 0 0 0 0 1 1 0 0 0 0 0 3 2 1 2 0 0 0 0 0 0 0 0 0 0 0 0 0 0 0 2 0 0 0 0 1 0 1 0 0 0
0 0 0 0 0 0 0 0 1 0 0 0 0 0 1 0 1 6 5 4 4 0 0 0 0 0 1 4 5 8 7 8 8 7 6 7 9 7 8 5 2 0 0 0
0 0 0 0 0 0 0 0 1 0 0 0 0 0 0 0 5 5 6 7 7 7 6 5 9 9 8 7 7 7 5 4 3 3 3 3 2 2 2 1 1 0 0 0
0 0 0 0 0 0 0 0 1 0 0 0 0 0 1 1 1 3 4 6 8 8 8 8 8 5 5 6 7 7 6 5 4 3 2 3 3 2 2 1 0 0 0 0
0 0 0 0 0 0 0 0 0 0 0 0 0 0 0 0 1 2 1 6 7 5 4 4 3 3 3 3 3 3 4 4 2 3 2 1 1 1 0 1 0 0 0 0
0 0 0 0 0 0 0 0 0 0 0 0 0 0 0 0 0 1 1 3 4 3 4 5 3 3 3 4 3 5 5 3 5 3 4 2 0 0 0 0 0 0 1 1
0 0 0 0 0 0 0 0 0 0 1 0 0 0 0 0 1 1 2 3 2 4 3 3 4 2 3 4 6 3 4 4 5 3 3 3 3 3 3 2 2 2 3 2
0 0 0 0 0 0 0 0 0 0 1 0 0 0 0 0 0 0 0 2 2 1 2 1 4 5 3 3 5 3 2 2 1 2 2 3 3 2 2 2 2 1 1 1
0 0 0 0 0 0 0 0 0 0 0 0 0 1 0 0 0 1 1 1 2 3 2 1 5 5 1 1 0 0 0 0 0 0 0 0 0 0 0 0 1 1 0 1
0 0 0 0 0 0 0 0 0 0 0 0 0 1 0 1 0 0 0 1 1 0 0 0 0 0 0 0 0 0 0 0 0 0 0 0 0 0 0 0 0 0 0 0
0 0 0 0 0 0 0 0 0 0 0 0 1 0 0 0 0 0 0 0 0 0 0 0 0 0 0 0 0 0 0 0 0 0 0 0 0 0 0 0 0 0 0 0
0 0 0 0 0 0 0 0 0 0 0 0 0 0 0 0 0 0 0 0 0 0 0 0 0 0 0 0 0 0 0 0 0 0 0 0 0 0 0 0 0 0 0 0
0 0 0 0 0 0 0 0 0 0 0 0 0 0 0 0 0 0 0 0 0 0 0 0 0 0 0 0 0 0 0 0 0 0 0 0 0 0 0 0 0 0 0 0
0 0 0 0 0 0 0 0 0 0 0 0 0 0 0 0 0 0 0 0 0 0 0 0 0 0 0 0 0 0 0 0 0 0 0 0 0 0 0 0 0 0 0 0
0 0 0 0 0 0 0 0 0 0 0 0 0 0 0 0 0 0 0 0 0 0 0 0 0 0 0 0 0 0 0 0 0 0 0 0 0 0 0 0 0 0 0 0
CIN
0 -5 -1 0 -5 -8 -3 -3 -2 0 0 0 0 0 0 0 0 0 0 0 0 0 0 -9 -16 -12 -9 -38 -61 -72 -72 -53 -67 -25 0 -19 0 0 0 0 0 0 0 0
0 0 0 0 -4 -5 -4 -3 0 0 0 -13 0 0 0 0 0 0 0 0 0 0 0 -9 -35 -95 -10 -17 -44 -56 -72 -71 -55 -25 0 0 0 0 0 0 0 0 0 0
0 0 0 0 0 0 0 0 0 0 0 0 0 0 0 0 0 0 0 0 0 0 0 0 -17 -3 -32 -6 -31 -39 -64 -97 -61 0 0 0 0 0 0 0 0 0 0 0
0 0 -4 -3 -1 0 0 0 -3 0 0 0 -4 0 0 0 0 0 0 0 0 0 0 0 0 -24 -47 -16 -58 -52 -48 -94 -92 -28 0 0 0 0 0 0 0 0 0 0
0 0 0 0 0 -1 0 0 0 0 0 -1 0 0 0 0 0 0 0 0 0 0 0 0 0 -18 -53 -52 -64 -59 -38 -64 -99 -149 0 0 0 0 0 0 0 0 0 0
0 0 0 0 0 0 0 0 0 0 0 0 0 0 0 0 0 0 0 0 0 0 0 0 0 -36 -54 -64 -76 -73 -58 -52 -73 -106 0 0 0 0 0 0 0 0 0 0
0 0 0 0 0 0 0 0 0 0 0 0 0 0 0 0 0 0 0 0 0 0 0 0 0 0 -22 -61 -53 -65 -60 -49 -60 -80 -64 0 0 0 0 0 0 0 0 0
0 0 0 0 0 0 0 0 0 0 0 0 0 0 0 0 0 0 0 0 0 0 0 0 0 0 0 -64 -76 -90 -92 -78 -98 -90 -96 0 0 0 0 0 0 0 0 0
0 0 0 0 0 0 0 0 0 -2 0 0 0 0 0 0 0 0 0 0 0 0 0 0 0 0 -19 -68 -90 -105 -131 -126 -113 -121 -59 -4 0 0 0 0 0 0 0 0
0 0 0 0 0 0 0 0 0 0 0 0 0 0 0 0 -12 0 0 0 0 0 0 0 0 0 -45 -67 -104 -105 -106 -100 -113 -102 -73 -25 0 0 0 0 0 0 0 0
0 0 0 0 0 0 0 0 0 0 0 0 0 0 0 0 -5 -27 -30 0 0 0 0 0 0 0 -68 -112 -135 -130 -90 -77 -57 -64 -40 -4 0 0 0 0 0 0 0 0
0 0 0 0 0 0 0 0 0 0 0 0 0 0 0 0 0 -2 -18 -6 -141 0 0 0 0 0 0 0 0 0 0 0 0 -7 -1 0 0 0 0 0 0 0 0 0
0 0 0 0 0 0 0 0 0 0 0 0 0 0 0 0 0 0 0 0 0 0 0 0 0 0 0 0 0 0 0 0 0 0 0 0 0 0 0 0 0 0 0 0
0 0 0 0 0 0 0 0 0 0 0 0 0 0 0 0 0 0 0 0 0 0 0 0 0 0 0 0 0 0 0 0 0 0 0 0 0 0 0 0 0 0 0 0
0 0 0 0 0 0 0 0 0 0 0 0 0 0 0 0 0 0 0 0 0 0 0 0 0 0 0 0 0 0 0 0 0 0 0 0 0 0 0 0 0 0 0 0
0 0 0 0 0 0 0 0 0 0 0 0 0 0 0 0 0 0 0 0 0 0 0 0 0 0 0 0 0 0 0 0 0 0 0 0 0 0 0 0 0 0 0 0
0 0 0 0 0 0 0 0 0 0 0 0 0 0 0 0 0 0 0 0 0 0 0 0 0 0 0 0 0 0 0 0 0 0 0 0 0 0 0 0 0 0 0 0
0 0 0 0 0 0 0 0 0 0 0 0 0 0 0 0 0 0 0 0 0 0 0 0 0 0 0 0 0 0 0 0 0 0 0 0 0 0 0 0 0 0 0 0
0 0 0 0 0 0 0 0 0 0 0 0 0 0 0 0 0 0 0 0 0 0 0 0 0 0 0 0 0 0 0 0 0 0 0 0 0 0 0 0 0 0 0 0
0 0 0 0 0 0 0 0 0 0 0 0 0 0 0 0 0 0 0 0 0 0 0 0 0 0 0 0 0 0 0 0 0 0 0 0 0 0 0 0 0 0 0 0
0 0 0 0 0 0 0 0 0 0 0 0 0 0 0 0 0 0 0 0 0 0 0 0 0 0 0 0 0 0 0 0 0 0 0 0 0 0 0 0 0 0 0 0
0 0 0 0 0 0 0 0 0 0 0 0 0 0 0 0 0 0 0 0 0 0 0 0 0 0 0 0 0 0 0 0 0 0 0 0 0 0 0 0 0 0 0 0
0 0 0 0 0 0 0 0 0 0 0 0 0 0 0 0 0 0 0 0 0 0 0 0 0 0 0 0 0 0 0 0 0 0 0 0 0 0 0 0 0 0 0 0
0 0 0 0 0 0 0 0 0 0 0 0 0 0 0 0 0 0 0 0 0 0 0 0 0 0 0 0 0 0 0 0 0 0 0 0 0 0 0 0 0 0 0 0
0 0 0 0 0 0 0 0 0 0 0 0 0 0 0 0 0 0 0 0 0 0 0 0 0 0 0 0 0 0 0 0 0 0 0 0 0 0 0 0 0 0 0 0
0 0 0 0 0 0 0 0 0 0 0 0 0 0 0 0 0 0 0 0 0 0 0 0 0 0 0 0 0 0 0 0 0 0 0 0 0 0 0 0 0 0 0 0
Wind_Speed
12 13 11 9 9 12 13 19 45 45 44 42 48 51 47 41 45 44 44 49 51 55 45 40 32 30 32 32 29 27 26 25 21 18 17 16 21 19 19 17 14 14 14 12
16 15 14 12 12 14 19 20 32 43 41 39 46 52 50 48 50 48 49 49 47 51 53 45 38 32 29 31 33 29 27 24 24 24 20 17 19 21 20 20 19 16 14 13
14 16 16 14 15 19 19 18 27 33 40 44 45 52 52 50 50 49 50 53 50 49 50 48 42 38 37 34 32 30 28 24 23 21 20 17 17 19 20 20 20 17 16 16
14 14 15 17 15 16 37 24 24 26 39 46 26 49 47 49 52 53 52 52 56 52 49 48 45 46 29 39 32 30 28 27 24 20 25 22 21 17 20 19 21 21 19 20
16 17 17 15 9 12 32 12 17 21 31 43 41 41 42 41 52 53 51 53 54 53 52 46 48 43 36 33 32 30 28 26 25 23 22 23 24 21 18 16 16 19 22 21
16 14 11 14 9 1 7 10 13 11 21 39 37 38 45 44 49 53 53 53 54 54 51 48 44 41 43 40 32 29 29 28 25 24 22 19 20 21 19 18 17 18 20 23
19 18 18 19 17 10 8 2 6 12 18 26 20 26 44 38 45 48 51 50 50 53 53 51 47 42 37 35 31 26 26 28 28 25 23 22 18 18 18 18 19 21 22 23
18 14 21 20 14 7 4 10 11 8 8 20 15 28 33 35 38 43 47 47 47 48 53 53 48 44 34 29 31 26 23 28 26 26 25 23 22 20 20 18 18 20 22 23
17 13 15 16 9 14 14 15 7 7 6 8 10 14 22 25 30 40 45 40 43 47 49 52 48 41 36 31 24 25 20 23 25 24 26 26 22 22 20 19 18 18 19 21
16 10 13 14 14 17 12 11 7 7 4 8 7 15 21 24 23 32 38 42 43 42 44 45 47 37 33 28 26 26 24 22 25 25 26 27 24 23 21 17 18 17 14 16
18 11 6 8 12 14 16 11 6 3 8 6 10 4 9 15 11 16 18 29 34 38 36 36 40 34 30 26 24 22 21 21 23 25 27 26 24 23 22 19 22 20 15 14
20 15 8 5 0 13 20 13 9 3 9 12 8 6 12 4 6 4 7 11 14 17 24 23 21 20 19 18 18 18 19 21 24 24 24 25 26 28 27 26 23 20 18 16
20 15 7 5 18 19 15 20 20 2 15 10 10 6 5 1 12 4 4 3 4 9 13 16 15 16 14 13 14 14 15 17 19 18 19 20 22 22 24 23 20 20 19 17
23 11 9 8 2 6 18 22 22 7 3 7 8 5 5 6 4 7 7 9 12 9 9 8 7 6 7 8 9 10 11 12 13 13 15 17 18 19 21 21 18 17 16 15
21 12 9 4 7 20 24 23 24 20 10 4 5 12 7 4 7 8 9 10 13 14 11 7 5 1 2 4 6 8 10 10 12 12 14 16 16 17 18 16 16 15 14 15
21 13 9 16 25 19 19 19 15 14 8 3 8 12 8 8 12 15 12 13 13 12 10 9 8 7 4 5 7 7 9 10 11 13 12 13 16 17 16 17 19 18 16 14
15 12 14 19 12 20 23 18 12 15 15 10 12 9 9 13 15 14 12 16 15 13 13 14 14 14 11 11 10 12 12 13 15 15 15 15 16 17 18 20 19 18 17 18
18 13 20 21 20 28 17 15 17 18 18 16 15 16 16 20 18 21 19 19 18 16 14 16 15 16 15 16 17 17 16 17 18 19 19 17 17 18 20 22 21 21 21 22
22 24 26 29 35 28 22 17 18 25 22 19 19 15 16 19 21 27 21 20 20 20 16 17 19 19 22 20 20 23 22 22 22 21 19 20 22 21 22 23 23 23 22 22
24 31 38 38 40 36 17 13 12 25 29 20 21 24 23 21 35 18 15 18 25 26 21 20 22 23 23 19 19 26 24 24 23 22 22 22 24 25 24 24 24 23 23 23
21 27 34 35 42 32 18 14 21 36 30 18 20 19 19 22 18 18 15 24 25 25 27 25 27 28 25 22 21 24 24 23 25 25 26 26 26 25 24 25 26 26 27 27
18 21 25 29 38 36 15 25 37 29 25 24 25 23 20 18 21 17 16 18 18 21 21 23 25 26 23 21 24 26 27 22 23 24 25 25 26 27 28 28 29 30 29 30
22 21 27 26 34 24 22 28 25 27 28 25 26 27 28 31 25 16 15 17 19 21 22 21 24 26 25 25 26 27 26 30 30 31 31 31 30 30 30 31 31 32 31 32
15 16 23 26 27 28 28 28 25 24 26 26 29 33 35 39 39 40 40 39 38 36 36 36 35 35 34 33 32 32 30 30 30 31 31 31 31 31 32 32 32 32 33 34
19 19 25 27 26 27 26 25 26 28 29 31 33 34 35 36 36 36 36 35 35 35 35 35 35 35 34 34 34 33 32 32 32 32 32 33 32 33 33 33 33 33 34 35
21 25 25 27 25 26 26 26 27 28 29 29 30 31 32 32 33 33 33 33 33 33 33 33 33 33 33 33 34 33 33 33 32 33 32 32 32 33 33 34 34 34 34 36
Wind_Direction
359 345 312 309 272 256 260 248 278 276 273 277 267 263 262 265 260 259 254 249 246 241 245 248 244 247 237 233 231 228 228 229 227 230 232 232 239 240 243 245 239 238 244 245
350 311 311 302 290 271 251 254 249 263 278 281 269 263 262 261 256 257 252 248 248 244 240 245 243 246 243 233 232 231 230 230 235 238 239 240 241 244 247 249 249 247 239 243
336 321 324 311 310 313 253 253 245 248 288 280 273 265 260 257 256 257 253 248 247 243 240 237 239 239 242 230 230 233 231 231 230 233 238 242 249 249 251 251 251 249 245 250
357 3 356 333 297 265 255 248 245 246 256 268 287 262 261 256 253 251 250 246 243 242 240 238 238 234 239 234 233 235 235 236 232 232 241 242 245 239 256 250 250 252 254 256
342 335 333 333 312 256 270 238 234 236 237 270 273 265 266 262 250 246 246 244 241 239 238 239 234 235 235 235 236 237 238 238 238 235 242 245 248 254 261 248 244 252 260 262
345 341 10 27 23 333 231 231 232 215 218 268 274 263 262 258 250 245 243 242 240 237 235 235 237 234 232 236 238 239 237 240 240 239 242 238 241 251 253 250 243 252 259 264
14 34 42 40 27 46 114 98 137 38 312 287 315 282 259 269 255 245 240 240 238 235 232 232 235 233 236 237 236 237 237 240 241 242 246 245 242 244 248 251 252 257 262 264
7 359 37 33 30 59 73 102 107 146 123 279 235 279 273 269 259 244 238 238 236 233 230 230 232 235 237 239 233 236 237 243 244 247 251 252 255 256 259 258 249 257 261 262
14 27 31 38 42 77 75 77 121 183 189 229 222 250 272 288 265 240 234 235 232 232 230 227 229 233 234 233 234 235 240 249 250 252 255 258 258 260 259 257 257 262 264 265
29 19 48 26 76 68 65 50 94 124 159 257 235 281 296 295 276 232 232 232 232 232 229 224 224 229 231 234 241 246 253 253 254 258 258 261 262 261 265 253 254 257 261 256
22 60 33 36 81 55 43 11 53 205 155 153 281 290 334 306 276 241 233 227 230 230 224 219 221 228 234 240 244 250 257 260 262 265 263 265 267 268 265 262 266 269 267 258
35 41 30 309 272 70 38 10 337 179 116 137 134 140 337 307 229 228 218 233 232 216 210 208 211 216 230 236 247 257 267 270 276 274 271 274 277 278 277 277 275 282 279 280
31 48 29 63 68 42 339 335 333 165 123 118 121 137 325 152 144 75 115 132 158 177 188 199 213 224 231 244 256 272 280 285 287 288 283 286 290 289 288 289 298 294 289 289
21 64 79 67 28 332 335 344 353 0 136 127 93 102 343 3 76 74 97 83 77 120 146 160 181 213 235 257 266 285 299 304 307 307 306 304 305 307 306 301 303 301 308 301
44 83 77 56 125 88 357 353 357 1 348 48 65 94 35 49 89 85 100 95 84 83 89 102 112 125 259 292 300 314 315 318 325 327 325 322 322 326 324 321 324 327 330 323
55 79 84 96 86 88 5 6 12 14 19 72 90 82 75 83 97 84 88 87 78 68 67 67 66 63 37 2 357 355 356 357 358 359 354 351 350 349 347 337 346 346 349 341
64 81 91 97 104 96 80 19 69 37 36 111 93 104 91 81 80 70 73 69 69 66 64 61 62 58 47 38 29 26 23 23 16 16 8 3 8 9 2 9 13 6 8 11
66 81 104 99 109 92 87 60 95 103 60 61 92 100 99 101 81 71 67 63 62 58 63 52 49 47 40 38 37 37 30 28 27 23 19 16 21 16 14 19 17 16 15 17
77 87 98 98 95 105 88 59 89 102 86 66 89 86 99 118 80 63 48 53 56 55 61 55 48 49 45 39 38 47 40 37 35 29 24 20 24 22 22 22 18 18 18 13
87 85 91 95 98 95 80 66 91 114 88 70 85 94 99 104 65 75 76 64 52 50 52 50 45 45 43 34 33 45 39 36 31 27 23 21 24 26 21 19 13 10 6 5
92 92 88 92 97 99 77 77 109 100 106 95 95 92 79 70 78 112 94 50 47 46 46 42 42 44 38 32 34 37 33 27 26 27 27 25 21 19 14 14 11 8 7 10
104 104 100 101 99 99 74 102 100 108 113 108 104 101 90 81 105 96 66 56 52 47 41 37 40 38 32 27 29 31 29 17 19 22 19 14 13 12 15 15 14 15 11 7
112 107 107 109 108 114 110 106 109 111 111 109 108 106 108 106 108 100 57 46 39 36 33 29 31 32 26 21 22 25 19 28 32 29 26 25 23 19 15 13 9 7 5 2
137 126 122 117 117 108 106 108 112 115 110 108 103 96 93 82 81 73 67 61 55 47 45 45 44 41 36 28 27 28 24 25 27 24 20 17 14 12 12 13 10 8 4 1
136 130 122 117 114 110 109 110 109 103 99 93 84 81 78 74 68 64 58 55 53 50 46 44 40 37 32 28 26 22 20 23 22 20 17 15 14 13 12 10 8 7 5 2
139 117 112 102 114 110 109 100 92 88 83 82 78 71 67 67 65 63 57 55 51 47 44 39 36 33 29 25 23 20 19 20 21 20 18 18 16 13 10 7 5 5 5 3